Regional Weather Roundup
Issued by NWS

Home | Current Version | Previous Version | Graphics & Text | Print | Product List | Glossary On
Versions: 1 2 3 4 5 6 7 8 9 10 11 12 13 14 15 16 17 18 19 20 21 22 23 24 25 26 27 28 29 30 31 32 33 34 35 36 37 38 39 40 41 42 43 44 45 46 47 48 49 50
000
ASUS43 KMPX 201001
RWRMN
WEATHER ROUNDUP FOR MINNESOTA
NATIONAL WEATHER SERVICE TWIN CITIES/CHANHASSEN MN
500 AM CDT SAT SEP 20 2014


NOTE: "FAIR" INDICATES FEW OR NO CLOUDS BELOW 12,000 FEET WITH NO
SIGNIFICANT WEATHER AND/OR OBSTRUCTIONS TO VISIBILITY. N/A MEANS
CURRENT SKY AND/OR WEATHER CONDITIONS ARE NOT AVAILABLE.

MNZ060>063-068>070-201100-
   Twin Cities Metro

CITY           SKY/WX    TMP DP  RH WIND       PRES   REMARKS
TWIN CITIES    CLOUDY    68  64  87 SW8       29.71R
ST PAUL        MOCLDY    69  65  86 SW8       29.71R
CRYSTAL        MOCLDY    69  64  84 SW7       29.69R
BLAINE         MOCLDY    70  68  94 SW6       29.69R
LAKEVILLE      MOCLDY    66  64  94 SW5       29.72R
EDEN PRAIRIE   CLOUDY    67  65  93 SW9       29.71R
SOUTH ST PAUL  MOCLDY    69  64  84 SW7       29.70R
LAKE ELMO      CLOUDY    68  64  88 SW8       29.71R
$$
MNZ001>005-007-008-013>017-022>024-027-028-201100-
   Northwest Minnesota

CITY           SKY/WX    TMP DP  RH WIND       PRES   REMARKS
BEMIDJI        CLOUDY    54  52  92 NW9       29.74R
HALLOCK        MOCLDY    54  52  94 NW6       29.75R
ROSEAU         MOCLDY    52  46  82 NW7       29.72R
WARROAD        CLEAR     52  46  82 NW6       29.72R
THIEF RVR FALL CLOUDY    55  52  88 NW13      29.74R
CROOKSTON      CLOUDY    55  54  94 NW10      29.77R
FOSSTON        CLOUDY    55  52  88 CALM      29.76R
DETROIT LAKES  CLOUDY    57  54  88 NW10      29.78R
MOORHEAD       CLEAR     55  55 100 NW3       29.79R
PARK RAPIDS    CLEAR     54  53  97 NW8       29.73R
MAHNOMEN       CLOUDY    56  54  92 NW9       29.75S
$$
MNZ006-009>011-018-025>026-201100-
   North Central Minnesota

CITY           SKY/WX    TMP DP  RH WIND       PRES   REMARKS
BAUDETTE       CLOUDY    53  49  86 NW13      29.69R
FLAG ISLAND    CLOUDY    54  50  87 NW13      29.68R
INTL FALLS     CLOUDY    57  56  96 W12G20    29.64R
WASKISH        CLOUDY    55  54  94 W10       29.71R
BIG FORK       CLOUDY    59  55  88 W7        29.68R
LONGVILLE      MOCLDY    59  55  88 W7        29.70R
GRAND RAPIDS   CLOUDY    61  57  88 NW14G20   29.68R
CRANE LAKE     TSTM      57  57 100 NW3       29.61R
ORR            CLOUDY    59  55  88 W10       29.60R FOG
COOK           CLOUDY    61  57  88 W13G20    29.62R
WALKER         FAIR      56  53  91 W7        29.72R
$$
MNZ012-019>021-037-201100-
   Northeast Minnesota

CITY           SKY/WX    TMP DP  RH WIND       PRES   REMARKS
DULUTH         CLOUDY    63  61  93 W12       29.60R FOG
ELY            MOCLDY    61  61 100 W8        29.56F FOG
HIBBING        MOCLDY    62  58  86 NW13G21   29.63R
EVELETH        MOCLDY    63  61  94 W7        29.61S
DULUTH HARBOR  MOCLDY    63  61  94 SW12      29.59R
TWO HARBORS    CLOUDY    63  57  82 W5        29.56S HAZE
SILVER BAY     FOG       61  61 100 CALM      29.55S VSB 1
GRAND MARAIS     N/A     53  53 100 SW7       29.53R
G MARAIS ARPRT FOG       59  55  88 SW3       29.57S VSB 1/4
$$
MNZ029>031-032-039>041-046>048-054>057-064-201100-
   West Central Minnesota

CITY           SKY/WX    TMP DP  RH WIND       PRES   REMARKS
FERGUS FALLS   CLOUDY    57  55  94 N7        29.79R
WHEATON        CLEAR     55  54  94 NW7       29.82R
MORRIS         CLEAR     55  54  94 NW8       29.78R
ALEXANDRIA     CLOUDY    59  57  93 NW13      29.77R
ELBOW LAKE     CLOUDY    57  56  96 NW12      29.78R
WADENA         PTCLDY    57  57 100 NW7       29.74R
GLENWOOD       CLEAR     55  55 100 W8        29.77R
APPLETON       CLEAR     57  54  88 W6        29.79R
BENSON         CLEAR     57  55  94 N9        29.78R
ORTONVILLE     CLEAR     61  55  82 NW8       29.80R
MADISON        PTCLDY    57  55  94 W8        29.81R
WILLMAR        FAIR      59  54  82 W5        29.77R
$$
MNZ033>034-036-042>043-049>051-058-059-201100-
   Central Minnesota

CITY           SKY/WX    TMP DP  RH WIND       PRES   REMARKS
ST CLOUD       CLEAR     64  58  80 W9        29.70R
SAUK CENTRE    FAIR      57  55  92 W6        29.75R
PAYNESVILLE    PTCLDY    55  54  97 SW6       29.74R
AITKIN         MOCLDY    64  57  77 W3        29.67R
PINE RIVER     MOCLDY    61  55  82 NW7       29.75R
BRAINERD       CLOUDY    60  57  89 NW12      29.71R
STAPLES        MOCLDY    59  55  88 NW7       29.72S
LONG PRAIRIE   MOCLDY    59  55  88 NW13G22   29.75R
LITTLE FALLS   PTCLDY    59  55  88 NW10G17   29.72R
LITCHFIELD     PTCLDY    64  61  88 W7        29.74R
BUFFALO        PTCLDY    63  59  87 W5        29.71S
MAPLE LAKE     PTCLDY    65  60  83 W5        29.72R
$$
MNZ037-044-045-052-053-201100-
   East Central Minnesota

CITY           SKY/WX    TMP DP  RH WIND       PRES   REMARKS
PRINCETON      PTCLDY    64  61  88 W5        29.69R
MORA           PTCLDY    59  59 100 NW7       29.68R
CAMBRIDGE      MOCLDY    66  57  72 SW5       29.66R
RUSH CITY      MOCLDY    64  61  89 W3        29.66S
MOOSE LAKE     MOCLDY    61  61 100 W9        29.62R
HINCKLEY       FAIR      59  59 100 W5        29.65R FOG
CLOQUET        CLOUDY    63  61  94 W10       29.62R
MCGREGOR       PTCLDY    61  59  94 W8        29.67R
$$
MNZ071>073-080-081-089-090-097-098-201100-
   Southwest Minnesota

CITY           SKY/WX    TMP DP  RH WIND       PRES   REMARKS
MONTEVIDEO     PTCLDY    61  55  82 N8        29.79R
GRANITE FALLS  PTCLDY    57  55  95 W7        29.80R
CANBY          MOCLDY    60  56  87 W7        29.82R
MARSHALL       MOCLDY    63  54  72 NW9       29.79R
REDWOOD FALLS  PTCLDY    63  57  81 W8        29.76R
OLIVIA         PTCLDY    61  55  82 NW6       29.75S
PIPESTONE      LGT RAIN  64  57  77 N6        29.83S
WINDOM         MOCLDY    64  63  94 W6        29.81R
WORTHINGTON    MOCLDY    63  63 100 W3        29.83R
JACKSON        MOCLDY    66  63  88 W8        29.81R
TRACY          MOCLDY    65  57  75 NW6       29.81R
SLAYTON        MOCLDY    64  57  79 CALM      29.84R
$$
MNZ065>067-074>077-082>085-091>093-201100-
   South Central Minnesota

CITY           SKY/WX    TMP DP  RH WIND       PRES   REMARKS
MANKATO        MOCLDY    66  61  82 SW7       29.75F
NEW ULM        PTCLDY    63  63 100 W3        29.76R
ST JAMES       MOCLDY    68  64  88 SW7       29.79R
FAIRMONT       CLOUDY    64  57  77 SW9       29.81R
GLENCOE        MOCLDY    65  59  80 CALM      29.73R
FARIBAULT      CLOUDY    70  63  78 S9G16     29.75R
OWATONNA       CLOUDY    66  63  88 SW10G17   29.76S
WASECA         CLOUDY    63  57  82 SW13      29.79R
ALBERT LEA     CLOUDY    64  63  94 SW9       29.77F
$$
MNZ078>079-086>088-094>096-201100-
   Southeast Minnesota

CITY           SKY/WX    TMP DP  RH WIND       PRES   REMARKS
ROCHESTER      CLOUDY    65  62  90 SW15G23   29.78S
RED WING       MOCLDY    70  64  83 W12       29.70F
STANTON        MOCLDY    68  64  86 SW15      29.71F
DODGE CENTER   CLOUDY    66  63  88 SW17      29.76F
WINONA         CLOUDY    70  63  78 SW8       29.73F
AUSTIN         CLOUDY    63  61  94 SW8       29.73F
PRESTON        CLOUDY    63  63 100 SW10G18   29.79S
$$
ABBREVIATIONS USED IN REMARKS
   TC - TEMPERATURES IN CELSIUS
  WCI - WIND CHILL INDEX
   HX - HEAT INDEX
  VSB - VISIBILITY
$$


USA.gov is the U.S. government's official web portal to all federal, state and local government web resources and services.